[[{"header":{"parameterUnit":"m.s-1","parameterCategory":2,"la1":30.2991,"la2":30.254,"lo1":-89.0895,"lo2":-89.0444,"dy":0.0017,"dx":0.0017,"nx":28,"ny":28,"refTime":"2025-09-16T03:00:00:Z","depth":"0","parameterNumber":2,"parameterNumberName":"U-component_of_CURRENTS"},"data":[0,0,0,0,0,0,0,0,0,0,0,0,0,0,0,0,0,0,0,0,0,0,0,0,0,0,0,0,0,0,0,0,0,0,0,0,0,0,0,0,0,0,0,0,0,0,0,0,0,0,0,0,0,0,0,0,0,0,0.2695,0.2696,0,0.2777,0.2778,0.2779,0.2831,0.2831,0.2831,0.2831,0.2931,0.2934,0.2936,0,0,0,0,0,0,0,0,0,0,0,0,0,0.2627,0.2628,0.2695,0.2696,0.2697,0.2776,0.2778,0.2779,0.2831,0.2831,0.2831,0.2831,0.293,0.2933,0.2936,0,0,0,0,0,0,0,0,0,0,0,0,0,0.2679,0.2628,0.2695,0.2731,0.2735,0.2776,0.2778,0.2779,0.2831,0.2831,0.2831,0.2831,0.2929,0.2933,0.2937,0.2954,0,0,0.2948,0.295,0,0,0,0,0,0,0,0,0.2676,0.2681,0.2725,0.2729,0.2733,0.2793,0.279,0.2838,0.2831,0.2796,0.2831,0.2832,0.2885,0.2893,0.2909,0.2959,0.2963,0.2948,0.2951,0.2952,0.2953,0,0,0,0,0,0,0,0.2672,0.2678,0.2729,0.2726,0.2731,0.2758,0.2765,0.28,0.284,0.2799,0.2803,0.2809,0.2888,0.2906,0.2912,0.2965,0.2948,0.2952,0.2954,0.2955,0.2961,0.2959,0,0,0,0,0,0,0.2657,0.2675,0.2726,0.2731,0.2703,0.2759,0.2767,0.2774,0.2839,0.2849,0.2809,0.2811,0.2899,0.2908,0.2916,0.29,0.2952,0.2956,0.2958,0.2963,0.296,0.2958,0,0,0,0,0,0,0.2655,0.266,0.2723,0.2704,0.2713,0.2759,0.2767,0.2776,0.2794,0.2846,0.2856,0.2817,0.29,0.291,0.2928,0.2906,0.2957,0.2961,0.2965,0.2962,0.2959,0.2894,0,0,0,0,0,0,0.2653,0.2659,0.2656,0.2703,0.2714,0.2743,0.2767,0.2777,0.2797,0.2801,0.2857,0.2866,0.2901,0.2922,0.2932,0.2912,0.2964,0.2968,0.2964,0.296,0.2899,0.2889,0.2881,0,0,0,0,0,0.265,0.2651,0.2656,0.2662,0.2709,0.2743,0.2751,0.2786,0.2796,0.2803,0.2827,0.2865,0.2903,0.2924,0.2936,0.2916,0.297,0.2965,0.296,0.2903,0.2891,0.2881,0,0,0,0,0,0,0.2605,0.2657,0.2664,0.2675,0.2701,0.2751,0.2759,0.2781,0.2807,0.2808,0.2854,0.2865,0.2872,0.2895,0.2916,0.2899,0.2936,0.2934,0.2888,0.2878,0.2869,0.287,0.2967,0,0,0,0,0,0.2594,0.2614,0.2656,0.2657,0.2672,0.2712,0.2728,0.2752,0.2782,0.2795,0.2828,0.2849,0.2862,0.287,0.2895,0.2894,0.2926,0.288,0.2871,0.2863,0.2867,0.2922,0.292,0.2942,0.2942,0.2943,0,0,0.2569,0.2603,0.2608,0.265,0.2673,0.2678,0.2723,0.2746,0.274,0.2801,0.2802,0.2832,0.2855,0.2852,0.2855,0.2869,0.2858,0.2857,0.2851,0.286,0.2917,0.2916,0.2914,0.2939,0.294,0.294,0,0,0.2532,0.2564,0.2567,0.2591,0.2629,0.2655,0.2657,0.2703,0.2717,0.2727,0.2754,0.277,0.2796,0.2805,0.2812,0.2765,0.2817,0.2759,0.2713,0.2765,0.2765,0.2765,0.2749,0.2749,0.2746,0.2745,0.2745,0,0.2491,0.2509,0.2568,0.2574,0.2581,0.2636,0.2625,0.2646,0.2686,0.269,0.2715,0.2745,0.2773,0.2759,0.2736,0.2749,0.2768,0.2758,0.2758,0.2759,0.2761,0.2745,0.2746,0.2742,0.2742,0.2743,0.2743,0,0.2465,0.2469,0.2472,0.2496,0.2511,0.2516,0.2551,0.256,0.2584,0.261,0.2621,0.2665,0.2683,0.268,0.2697,0.2699,0.2702,0.2752,0.2795,0.2755,0.2739,0.2741,0.2736,0.2738,0.2739,0.274,0,0,0.2383,0.244,0.2437,0.244,0.2473,0.2488,0.2468,0.248,0.2483,0.2518,0.2523,0.2538,0.2585,0.2593,0.262,0.2654,0.2664,0.2699,0.2703,0.2697,0.2734,0.2488,0.2467,0.2729,0.273,0.2731,0.2699,0,0.2331,0.234,0.2372,0.2351,0.2358,0.239,0.2377,0.2396,0.2425,0.245,0.2489,0.252,0.2543,0.2566,0.2597,0.2671,0.2675,0.2665,0.276,0.2761,0.2563,0.2464,0.2305,0.2242,0.2701,0.2702,0.2702,0,0.2289,0.2307,0.2292,0.2309,0.2312,0.2302,0.231,0.231,0.2345,0.2375,0.2405,0.246,0.249,0.2543,0.2616,0.2613,0.2655,0.2705,0.2706,0.2509,0.252,0.2365,0.2229,0.2153,0.2706,0.2706,0.2705,0,0.2245,0.2245,0.2239,0.2244,0.227,0.2255,0.226,0.2286,0.2304,0.2342,0.2375,0.2419,0.2467,0.2537,0.2591,0.263,0.267,0.2747,0.2548,0.2531,0.2426,0.2394,0.2243,0.2794,0.2794,0.2794,0.2794,0,0.22,0.2189,0.2222,0.2226,0.222,0.2233,0.2234,0.2248,0.2279,0.2305,0.2349,0.238,0.2483,0.2511,0.2569,0.2508,0.2644,0.2501,0.25,0.2384,0.2351,0.2306,0.2302,0.2793,0.2793,0.2793,0.2793,0,0.2169,0.2184,0.219,0.2208,0.2211,0.2215,0.2238,0.2248,0.227,0.2304,0.232,0.2369,0.2365,0.2395,0.2487,0.2447,0.2337,0.2399,0.2195,0.2164,0.1859,0.1857,0.1665,0.1637,0.2168,0.2161,0.2156,0,0.2156,0.2163,0.2198,0.2213,0.2222,0.223,0.2241,0.2254,0.2263,0.2293,0.2306,0.2294,0.2258,0.22,0.2118,0.2052,0.2096,0.1867,0.1895,0.1754,0.1758,0.1763,0.176,0.1736,0.1728,0.1721,0.1715,0,0.215,0.2174,0.2201,0.2226,0.2238,0.2244,0.2247,0.2241,0.2248,0.2247,0.2207,0.2171,0.204,0.1847,0.1694,0.1671,0.17,0.1715,0.168,0.1446,0.1343,0.1344,0.1815,0.1654,0.166,0.1665,0.1668,0.1671,0.2161,0.2187,0.2228,0.2233,0.2247,0.2215,0.2168,0.2155,0.2115,0.2011,0.2071,0.1895,0.1677,0.1402,0.135,0.107,0.123,0.1038,0.106,0.1088,0.0988,0.1232,0.0993,0.0996,0.0997,0.0999,0.1001,0,0.2163,0.2193,0.2222,0.221,0.2173,0.2186,0.2137,0.2039,0.1917,0.182,0.1722,0.1379,0.1123,0.0934,0.0594,0.0467,0.0553,0.0444,0.0501,0.0553,0.0861,0.0766,0.033,0.033,0.0331,0.0331,0.0331,0.0331,0.2172,0.2196,0.2194,0.2116,0.2088,0.1971,0.1901,0.1764,0.1641,0.1327,0.1065,0.0943,0.0679,0.0308,0.0054,0.0053,0.0107,-0.0009,0.0118,0.0398,0.0461,0.052,0.043,-0.0069,-0.007,-0.0195,-0.0197,-0.0198]},{"header":{"parameterUnit":"m.s-1","parameterCategory":2,"la1":30.2991,"la2":30.254,"lo1":-89.0895,"lo2":-89.0444,"dy":0.0017,"dx":0.0017,"nx":28,"ny":28,"refTime":"2025-09-16T03:00:00:Z","depth":"0","parameterNumber":3,"parameterNumberName":"V-component_of_CURRENTS"},"data":[0,0,0,0,0,0,0,0,0,0,0,0,0,0,0,0,0,0,0,0,0,0,0,0,0,0,0,0,0,0,0,0,0,0,0,0,0,0,0,0,0,0,0,0,0,0,0,0,0,0,0,0,0,0,0,0,0,0,0.019,0.019,0,0.017,0.017,0.017,0.0141,0.014,0.0139,0.0139,0.0086,0.0086,0.0085,0,0,0,0,0,0,0,0,0,0,0,0,0,0.025,0.0249,0.019,0.019,0.0189,0.017,0.017,0.017,0.0141,0.014,0.0139,0.0138,0.0086,0.0086,0.0085,0,0,0,0,0,0,0,0,0,0,0,0,0,0.023,0.0249,0.0191,0.0169,0.0167,0.017,0.017,0.017,0.0141,0.014,0.0139,0.0138,0.0087,0.0086,0.0085,0.0105,0,0,0.0082,0.0082,0,0,0,0,0,0,0,0,0.0231,0.0228,0.0173,0.0171,0.0168,0.0153,0.0172,0.0145,0.0142,0.0155,0.0138,0.0137,0.0104,0.0102,0.0107,0.0103,0.0101,0.0082,0.0082,0.0081,0.0081,0,0,0,0,0,0,0,0.0232,0.0229,0.0186,0.0173,0.0169,0.0176,0.0172,0.0167,0.014,0.0154,0.0151,0.0143,0.0103,0.0108,0.0105,0.01,0.0082,0.0081,0.0081,0.008,0.0086,0.0087,0,0,0,0,0,0,0.0226,0.023,0.0187,0.0185,0.0193,0.0176,0.0171,0.0163,0.014,0.0135,0.0144,0.0141,0.011,0.0106,0.0103,0.0115,0.0081,0.008,0.008,0.0085,0.0086,0.0087,0,0,0,0,0,0,0.0227,0.0222,0.0188,0.0204,0.02,0.0175,0.0166,0.0163,0.0165,0.0132,0.0127,0.0148,0.0109,0.0104,0.0097,0.0112,0.008,0.0079,0.0084,0.0085,0.0086,0.0144,0,0,0,0,0,0,0.0229,0.0223,0.0225,0.0204,0.0198,0.0202,0.0167,0.0163,0.016,0.0157,0.0134,0.0128,0.0107,0.0099,0.0096,0.0111,0.0078,0.0084,0.0085,0.0086,0.0142,0.0147,0.0152,0,0,0,0,0,0.0231,0.0248,0.0226,0.022,0.0198,0.0203,0.0203,0.0183,0.0161,0.0178,0.015,0.0129,0.0105,0.0099,0.0096,0.011,0.0083,0.0085,0.0086,0.0139,0.0146,0.0152,0,0,0,0,0,0,0.0274,0.0245,0.0221,0.0225,0.0215,0.0197,0.021,0.019,0.0183,0.0175,0.014,0.0133,0.0132,0.0115,0.0109,0.0115,0.009,0.0091,0.0131,0.0138,0.0143,0.0185,0.0078,0,0,0,0,0,0.0282,0.0288,0.0256,0.0262,0.0257,0.0232,0.0232,0.0216,0.0201,0.0197,0.0175,0.0153,0.0139,0.0132,0.0121,0.0128,0.0156,0.0134,0.014,0.0144,0.0177,0.0259,0.0276,0.0092,0.0092,0.0092,0,0,0.0298,0.0284,0.0285,0.0272,0.0261,0.0261,0.0231,0.0236,0.0233,0.0193,0.0191,0.0172,0.0145,0.0149,0.0147,0.0135,0.0201,0.0146,0.015,0.0181,0.0263,0.0281,0.0297,0.0093,0.0093,0.0092,0,0,0.0336,0.032,0.0334,0.0329,0.0314,0.0298,0.0298,0.0279,0.0271,0.0266,0.0232,0.0235,0.0204,0.0203,0.0192,0.0224,0.0227,0.0203,0.0266,0.0345,0.0362,0.0377,0.0401,0.0418,0.0206,0.0206,0.0206,0,0.0354,0.0351,0.0342,0.0351,0.0342,0.0312,0.0316,0.0313,0.0293,0.0301,0.0271,0.0271,0.0239,0.0265,0.0264,0.024,0.0269,0.0242,0.0356,0.0372,0.0387,0.0408,0.0426,0.0209,0.0209,0.0209,0.0208,0,0.039,0.0387,0.04,0.0388,0.0392,0.0393,0.0373,0.0381,0.0358,0.0355,0.0379,0.0357,0.0366,0.0344,0.0306,0.0386,0.0364,0.0355,0.0347,0.041,0.0426,0.0444,0.0214,0.0212,0.0212,0.0211,0,0,0.0414,0.042,0.0418,0.0413,0.0403,0.0406,0.0419,0.0425,0.0455,0.0446,0.0498,0.0469,0.0481,0.0473,0.0443,0.0498,0.0594,0.0471,0.0474,0.0508,0.0742,0.0669,0.0681,0.0614,0.0618,0.0621,0.0699,0,0.0429,0.0444,0.0446,0.0453,0.0449,0.0444,0.0465,0.0479,0.0492,0.0545,0.0552,0.0586,0.0522,0.0539,0.0588,0.0604,0.0651,0.0572,0.0667,0.0669,0.061,0.0704,0.0685,0.075,0.0717,0.072,0.0722,0,0.0443,0.0447,0.0456,0.0471,0.0474,0.0485,0.0522,0.0542,0.0615,0.0638,0.0698,0.0713,0.078,0.0726,0.0817,0.0773,0.0768,0.0774,0.0777,0.0714,0.0633,0.0689,0.0784,0.0801,0.075,0.0748,0.0746,0,0.0437,0.045,0.0453,0.0453,0.0475,0.0492,0.051,0.0571,0.0617,0.0719,0.0786,0.0859,0.0914,0.0955,0.0934,0.0902,0.1037,0.0993,0.0919,0.0911,0.0918,0.0904,0.1061,0.1081,0.108,0.108,0.108,0,0.0437,0.0443,0.045,0.0451,0.0482,0.0497,0.0563,0.0603,0.0701,0.0792,0.0842,0.0937,0.0985,0.1045,0.1015,0.1024,0.1103,0.0967,0.0954,0.0928,0.0915,0.0944,0.0943,0.1083,0.1082,0.1082,0.1081,0,0.0439,0.0438,0.0448,0.0467,0.048,0.0504,0.0585,0.0656,0.0733,0.0866,0.091,0.1033,0.1113,0.1119,0.1186,0.1125,0.1141,0.1104,0.1035,0.1013,0.0943,0.0943,0.109,0.1114,0.1068,0.1067,0.1067,0,0.0448,0.0447,0.046,0.0483,0.0495,0.0539,0.0595,0.0665,0.0747,0.0919,0.0996,0.1113,0.1193,0.1243,0.1182,0.1143,0.1137,0.1073,0.1009,0.0976,0.0969,0.0972,0.0982,0.1027,0.1026,0.1025,0.1024,0,0.0467,0.0465,0.0478,0.0517,0.056,0.062,0.0694,0.0756,0.0867,0.0973,0.112,0.1197,0.1242,0.1224,0.115,0.1106,0.1094,0.105,0.1083,0.102,0.0977,0.0979,0.0892,0.1017,0.1018,0.1018,0.1019,0.1019,0.0491,0.0505,0.0523,0.0565,0.0621,0.07,0.0753,0.0845,0.0958,0.1097,0.1164,0.1239,0.1235,0.1145,0.111,0.1014,0.1036,0.0975,0.0995,0.1014,0.1005,0.0863,0.0923,0.0923,0.0923,0.0923,0.0923,0,0.0517,0.0539,0.0582,0.0632,0.0701,0.0722,0.083,0.088,0.0996,0.1089,0.1177,0.1161,0.1149,0.1103,0.0999,0.0972,0.0985,0.0971,0.1014,0.104,0.0983,0.0946,0.0936,0.0935,0.0935,0.0935,0.0935,0.0935,0.0538,0.0573,0.0591,0.069,0.0737,0.0816,0.087,0.0939,0.0995,0.1044,0.103,0.1031,0.1005,0.1036,0.1014,0.1003,0.1059,0.1023,0.1072,0.1047,0.105,0.1053,0.1021,0.1027,0.1027,0.1133,0.1134,0.1134]}],[{"header":{"parameterUnit":"m.s-1","parameterCategory":2,"la1":30.2991,"la2":30.254,"lo1":-89.0895,"lo2":-89.0444,"dy":0.0017,"dx":0.0017,"nx":28,"ny":28,"refTime":"2025-09-16T03:00:00:Z","depth":"2","parameterNumber":2,"parameterNumberName":"U-component_of_CURRENTS"},"data":[0,0,0,0,0,0,0,0,0,0,0,0,0,0,0,0,0,0,0,0,0,0,0,0,0,0,0,0,0,0,0,0,0,0,0,0,0,0,0,0,0,0,0,0,0,0,0,0,0,0,0,0,0,0,0,0,0,0,0.1533,0.1534,0,0.1597,0.1598,0.1599,0.1663,0.1664,0.1664,0.1665,0.1725,0.1726,0.1727,0,0,0,0,0,0,0,0,0,0,0,0,0,0.1542,0.1542,0.1533,0.1534,0.1535,0.1597,0.1598,0.1599,0.1663,0.1664,0.1665,0.1665,0.1724,0.1725,0.1727,0,0,0,0,0,0,0,0,0,0,0,0,0,0.1567,0.1541,0.1533,0.1572,0.1576,0.1597,0.1598,0.16,0.1663,0.1664,0.1665,0.1666,0.1724,0.1725,0.1727,0.1716,0,0,0.1731,0.1732,0,0,0,0,0,0,0,0,0.1566,0.1567,0.1566,0.157,0.1574,0.1621,0.1623,0.1638,0.1663,0.1632,0.1665,0.1666,0.1687,0.1692,0.1705,0.1719,0.1722,0.1731,0.1732,0.1733,0.1733,0,0,0,0,0,0,0,0.1564,0.1565,0.1561,0.1566,0.1571,0.1612,0.1617,0.1627,0.1655,0.1635,0.1639,0.1642,0.169,0.1704,0.1707,0.1723,0.1731,0.1733,0.1734,0.1734,0.1891,0.1894,0,0,0,0,0,0,0.1546,0.1563,0.1559,0.1563,0.157,0.1611,0.1616,0.1607,0.1655,0.1663,0.1642,0.1645,0.1701,0.1705,0.1709,0.1789,0.1733,0.1734,0.1735,0.1888,0.1892,0.1896,0,0,0,0,0,0,0.1546,0.1545,0.1556,0.1564,0.1568,0.1609,0.1599,0.1608,0.1653,0.166,0.1668,0.1681,0.1701,0.1707,0.1765,0.1788,0.1735,0.1736,0.1884,0.1889,0.1894,0.189,0,0,0,0,0,0,0.1546,0.1544,0.1549,0.1562,0.1566,0.1587,0.1598,0.1608,0.165,0.1657,0.1696,0.1701,0.1703,0.1763,0.1766,0.1789,0.1738,0.188,0.1886,0.1892,0.1886,0.1895,0.1902,0,0,0,0,0,0.1546,0.1535,0.1548,0.1549,0.1565,0.1588,0.1596,0.163,0.1651,0.1675,0.1718,0.1701,0.1805,0.1766,0.177,0.1793,0.1877,0.1885,0.1892,0.1883,0.1893,0.1901,0,0,0,0,0,0,0.1522,0.154,0.1556,0.1546,0.1577,0.1599,0.1618,0.1646,0.1698,0.1712,0.1729,0.1738,0.1805,0.1812,0.1768,0.1867,0.1844,0.1852,0.1836,0.1846,0.1853,0.1844,0.1739,0,0,0,0,0,0.1521,0.1536,0.1552,0.1553,0.1564,0.1601,0.1621,0.1646,0.1683,0.1708,0.1746,0.1792,0.1833,0.1849,0.1891,0.1924,0.1929,0.1954,0.1961,0.1967,0.197,0.2042,0.2054,0.192,0.192,0.192,0,0,0.1528,0.1526,0.1545,0.1554,0.1578,0.1599,0.1617,0.1649,0.1681,0.1703,0.1776,0.1823,0.1857,0.1911,0.194,0.1915,0.1999,0.1976,0.198,0.198,0.2051,0.2063,0.2074,0.1925,0.1924,0.1923,0,0,0.1521,0.153,0.1542,0.1564,0.1593,0.1614,0.1631,0.1679,0.1716,0.178,0.1818,0.1884,0.1944,0.1974,0.1991,0.2068,0.205,0.2094,0.21,0.2171,0.2181,0.219,0.2156,0.2163,0.2081,0.2082,0.2082,0,0.1547,0.1523,0.1552,0.1556,0.1572,0.1624,0.1638,0.168,0.1753,0.178,0.181,0.1937,0.197,0.202,0.2062,0.2079,0.2091,0.2047,0.2175,0.2185,0.2195,0.2159,0.2166,0.2082,0.2082,0.2082,0.2082,0,0.1528,0.1532,0.1535,0.1563,0.159,0.161,0.1658,0.1711,0.1767,0.1809,0.1902,0.1968,0.2035,0.2068,0.2086,0.2172,0.2146,0.2181,0.2134,0.2207,0.2165,0.2172,0.2083,0.2083,0.2083,0.2083,0,0,0.1535,0.1536,0.1537,0.1549,0.1592,0.1612,0.1662,0.1712,0.1753,0.1846,0.1902,0.2002,0.2051,0.208,0.2122,0.2188,0.2253,0.2218,0.2221,0.2151,0.2345,0.2101,0.2084,0.2322,0.2325,0.2328,0.2265,0,0.1524,0.1526,0.1523,0.1551,0.1563,0.1611,0.1652,0.1712,0.1778,0.1853,0.1927,0.2009,0.2047,0.2095,0.2168,0.2261,0.2285,0.2262,0.2315,0.2314,0.2063,0.209,0.1951,0.1867,0.2272,0.2273,0.2274,0,0.1484,0.1495,0.1517,0.154,0.155,0.1583,0.165,0.1695,0.1789,0.184,0.1921,0.1993,0.2093,0.2136,0.2268,0.226,0.2299,0.2351,0.2351,0.2132,0.2086,0.1878,0.1865,0.2286,0.2285,0.2284,0.2283,0,0.1457,0.1473,0.1493,0.1509,0.1563,0.1585,0.1618,0.1699,0.1743,0.1844,0.1898,0.2004,0.2086,0.2182,0.226,0.2296,0.2381,0.2434,0.222,0.22,0.2092,0.2056,0.251,0.251,0.251,0.251,0.251,0,0.1425,0.144,0.149,0.1509,0.1537,0.1578,0.1624,0.1668,0.1752,0.1815,0.1901,0.1969,0.2126,0.2184,0.2247,0.221,0.2354,0.2203,0.218,0.2078,0.2043,0.2437,0.243,0.2508,0.2508,0.2509,0.2509,0,0.1404,0.1431,0.1456,0.1512,0.1526,0.1559,0.1614,0.1662,0.1732,0.182,0.1858,0.1974,0.2017,0.2067,0.2194,0.216,0.2171,0.2112,0.1907,0.1859,0.1941,0.1935,0.1884,0.1875,0.1867,0.1861,0.1856,0,0.1397,0.1412,0.1461,0.1489,0.152,0.1566,0.1604,0.1655,0.1708,0.1821,0.1869,0.1913,0.1901,0.188,0.1843,0.1774,0.1942,0.1596,0.1634,0.19,0.1885,0.189,0.1894,0.1487,0.1479,0.1473,0.1468,0,0.1402,0.1425,0.146,0.15,0.154,0.1573,0.1626,0.1642,0.1725,0.1753,0.1788,0.1768,0.1699,0.1542,0.1398,0.1381,0.159,0.1453,0.185,0.163,0.1511,0.15,0.1521,0.141,0.1416,0.142,0.1423,0.1426,0.142,0.1432,0.1475,0.1508,0.1555,0.1581,0.1572,0.1586,0.1586,0.1564,0.1632,0.1497,0.1444,0.111,0.1036,0.0984,0.113,0.1124,0.1153,0.1186,0.1114,0.0986,0.0768,0.077,0.0771,0.0773,0.0774,0,0.1412,0.1435,0.1478,0.1501,0.1527,0.1573,0.1593,0.1524,0.144,0.1372,0.1292,0.1046,0.0857,0.0818,0.0635,0.057,0.0675,0.0553,0.0728,0.0781,0.0829,0.075,0.0302,0.03,0.0299,0.0298,0,0,0.1417,0.1426,0.143,0.1457,0.1499,0.149,0.1485,0.1326,0.1218,0.0988,0.0848,0.0801,0.0774,0.0535,0.0471,0.0369,0.0592,0.0338,0.0715,0.0976,0.1024,0.1141,0.1071,0,0,0,0,0]},{"header":{"parameterUnit":"m.s-1","parameterCategory":2,"la1":30.2991,"la2":30.254,"lo1":-89.0895,"lo2":-89.0444,"dy":0.0017,"dx":0.0017,"nx":28,"ny":28,"refTime":"2025-09-16T03:00:00:Z","depth":"2","parameterNumber":3,"parameterNumberName":"V-component_of_CURRENTS"},"data":[0,0,0,0,0,0,0,0,0,0,0,0,0,0,0,0,0,0,0,0,0,0,0,0,0,0,0,0,0,0,0,0,0,0,0,0,0,0,0,0,0,0,0,0,0,0,0,0,0,0,0,0,0,0,0,0,0,0,-0.0052,-0.0052,0,-0.0053,-0.0053,-0.0053,-0.0058,-0.0058,-0.0059,-0.0059,-0.0091,-0.0091,-0.0092,0,0,0,0,0,0,0,0,0,0,0,0,0,-0.0034,-0.0034,-0.0052,-0.0052,-0.0052,-0.0053,-0.0053,-0.0053,-0.0058,-0.0058,-0.0059,-0.0059,-0.0091,-0.0091,-0.0092,0,0,0,0,0,0,0,0,0,0,0,0,0,-0.0038,-0.0034,-0.0052,-0.0056,-0.0056,-0.0053,-0.0053,-0.0053,-0.0058,-0.0058,-0.0059,-0.0059,-0.009,-0.0091,-0.0092,-0.0092,0,0,-0.0095,-0.0096,0,0,0,0,0,0,0,0,-0.0038,-0.0039,-0.0055,-0.0056,-0.0056,-0.0057,-0.0058,-0.0068,-0.0058,-0.0056,-0.0059,-0.0059,-0.0083,-0.0084,-0.0082,-0.0093,-0.0094,-0.0095,-0.0096,-0.0096,-0.0097,0,0,0,0,0,0,0,-0.0037,-0.0038,-0.0052,-0.0055,-0.0056,-0.005,-0.0051,-0.0059,-0.0068,-0.0057,-0.0057,-0.0059,-0.0083,-0.0081,-0.0083,-0.0095,-0.0095,-0.0096,-0.0097,-0.0097,-0.014,-0.014,0,0,0,0,0,0,-0.004,-0.0038,-0.0052,-0.0052,-0.0049,-0.005,-0.0051,-0.0055,-0.0067,-0.0069,-0.0058,-0.0059,-0.0079,-0.0082,-0.0084,-0.0096,-0.0096,-0.0097,-0.0098,-0.0139,-0.014,-0.014,0,0,0,0,0,0,-0.004,-0.0041,-0.0052,-0.0045,-0.0047,-0.005,-0.0055,-0.0055,-0.0066,-0.0068,-0.007,-0.007,-0.0079,-0.0083,-0.0096,-0.0097,-0.0098,-0.0098,-0.0139,-0.0139,-0.014,-0.0114,0,0,0,0,0,0,-0.0039,-0.0041,-0.0047,-0.0046,-0.0047,-0.0042,-0.0054,-0.0055,-0.0066,-0.0067,-0.0079,-0.0081,-0.008,-0.0094,-0.0097,-0.0099,-0.0099,-0.0138,-0.0139,-0.014,-0.0114,-0.0113,-0.0113,0,0,0,0,0,-0.0039,-0.0032,-0.0047,-0.0049,-0.0054,-0.0042,-0.0041,-0.0045,-0.0067,-0.0059,-0.0077,-0.0082,-0.0103,-0.0095,-0.0098,-0.01,-0.0137,-0.0139,-0.014,-0.0114,-0.0113,-0.0113,0,0,0,0,0,0,-0.0018,-0.0032,-0.0048,-0.0046,-0.0046,-0.0043,-0.0037,-0.0054,-0.0062,-0.007,-0.0084,-0.0086,-0.0102,-0.0109,-0.01,-0.0119,-0.0123,-0.0125,-0.0103,-0.0102,-0.0102,-0.0078,-0.01,0,0,0,0,0,-0.002,-0.0026,-0.0034,-0.0033,-0.0032,-0.0044,-0.0044,-0.0049,-0.0056,-0.0061,-0.0076,-0.0094,-0.0107,-0.0111,-0.0121,-0.0127,-0.0099,-0.0134,-0.0134,-0.0133,-0.0117,-0.0038,-0.0027,-0.0145,-0.0145,-0.0144,0,0,-0.0018,-0.0022,-0.0029,-0.003,-0.0032,-0.0026,-0.0043,-0.004,-0.0044,-0.0064,-0.0077,-0.0095,-0.0111,-0.0115,-0.0123,-0.0121,-0.0097,-0.0135,-0.0134,-0.0118,-0.0038,-0.0025,-0.0015,-0.0145,-0.0145,-0.0145,0,0,0.0002,-0.0014,-0.001,-0.0008,-0.001,-0.0014,-0.0019,-0.0028,-0.0038,-0.0052,-0.0072,-0.0083,-0.011,-0.0108,-0.0115,-0.0121,-0.0101,-0.0142,-0.0111,-0.0035,-0.0023,-0.0012,-0.0,0.0012,-0.0136,-0.0136,-0.0136,0,0.0004,0.0006,-0.0004,0.0009,0.0007,-0.0013,-0.0007,-0.0014,-0.003,-0.0034,-0.0053,-0.0077,-0.0098,-0.0091,-0.01,-0.0116,-0.0087,-0.0108,-0.0029,-0.0018,-0.0007,0.0003,0.0016,-0.0134,-0.0135,-0.0135,-0.0135,0,0.0028,0.0027,0.0036,0.0033,0.0035,0.004,0.0028,0.0022,-0.0006,-0.0013,-0.0021,-0.0039,-0.0044,-0.0066,-0.0088,-0.004,-0.0052,-0.0037,-0.0019,0.0008,0.0014,0.0027,-0.0133,-0.0133,-0.0134,-0.0134,0,0,0.0034,0.0044,0.0046,0.0045,0.0044,0.0049,0.0047,0.0045,0.0054,0.0031,0.0052,0.0011,0.0007,-0.0001,-0.0024,0.0027,0.0096,0.0024,0.0028,0.0054,0.0232,0.0193,0.0203,0.0142,0.0146,0.0148,0.0193,0,0.0048,0.0066,0.007,0.008,0.0082,0.0074,0.0081,0.0079,0.0074,0.0095,0.0081,0.0091,0.0031,0.0038,0.0076,0.0112,0.0138,0.008,0.0187,0.0189,0.0169,0.0221,0.0211,0.025,0.0206,0.0208,0.0209,0,0.007,0.0072,0.008,0.0095,0.0098,0.0103,0.0116,0.0123,0.015,0.0155,0.0171,0.0171,0.021,0.0171,0.0248,0.0221,0.0218,0.0235,0.0239,0.0212,0.0177,0.0222,0.0276,0.0231,0.023,0.0228,0.0227,0,0.0069,0.0087,0.0086,0.0088,0.0099,0.0103,0.0112,0.0134,0.0158,0.0206,0.0254,0.0282,0.0335,0.0358,0.0359,0.0327,0.046,0.0426,0.0372,0.0366,0.0383,0.0375,0.0481,0.0481,0.0481,0.048,0.048,0,0.008,0.0085,0.0084,0.008,0.0092,0.0104,0.0134,0.0153,0.0212,0.028,0.0288,0.0369,0.04,0.0462,0.0426,0.045,0.0515,0.0393,0.0399,0.0382,0.0374,0.0382,0.037,0.0482,0.0482,0.0481,0.0481,0,0.0079,0.0081,0.0079,0.0081,0.0088,0.0092,0.0143,0.0185,0.024,0.0343,0.0373,0.0478,0.0568,0.0558,0.0625,0.0557,0.0565,0.0539,0.0479,0.0477,0.0386,0.0375,0.0493,0.0493,0.0492,0.0492,0.0492,0,0.0082,0.0077,0.0069,0.0077,0.0075,0.0093,0.0127,0.018,0.0243,0.0415,0.0485,0.0605,0.0682,0.0734,0.0673,0.0612,0.059,0.0535,0.0464,0.0406,0.04,0.0388,0.0377,0.0475,0.0474,0.0474,0.0474,0,0.0076,0.0065,0.006,0.0074,0.0096,0.0136,0.0194,0.025,0.0359,0.0474,0.0653,0.0733,0.0779,0.0757,0.0665,0.061,0.0545,0.0523,0.0559,0.0461,0.039,0.0382,0.0373,0.0471,0.0471,0.0471,0.0472,0.0472,0.007,0.0065,0.0067,0.0086,0.0124,0.02,0.0253,0.035,0.048,0.0648,0.0723,0.081,0.0786,0.0657,0.0611,0.0531,0.0521,0.0456,0.0457,0.0459,0.0437,0.0369,0.0438,0.0438,0.0438,0.0438,0.0438,0,0.0078,0.0079,0.0094,0.0133,0.0197,0.021,0.0325,0.0394,0.0563,0.0658,0.0774,0.071,0.0688,0.0637,0.0516,0.0448,0.0442,0.0419,0.0428,0.0431,0.0434,0.041,0.0405,0.0404,0.0404,0.0404,0,0,0.0085,0.0098,0.0109,0.0201,0.0243,0.0337,0.0408,0.0509,0.0578,0.0667,0.0684,0.0706,0.0663,0.056,0.051,0.0456,0.0447,0.0436,0.0467,0.0486,0.0489,0.0458,0.0425,0,0,0,0,0]}],[{"header":{"parameterUnit":"m.s-1","parameterCategory":2,"la1":30.2991,"la2":30.254,"lo1":-89.0895,"lo2":-89.0444,"dy":0.0017,"dx":0.0017,"nx":28,"ny":28,"refTime":"2025-09-16T03:00:00:Z","depth":"4","parameterNumber":2,"parameterNumberName":"U-component_of_CURRENTS"},"data":[0,0,0,0,0,0,0,0,0,0,0,0,0,0,0,0,0,0,0,0,0,0,0,0,0,0,0,0,0,0,0,0,0,0,0,0,0,0,0,0,0,0,0,0,0,0,0,0,0,0,0,0,0,0,0,0,0,0,0.0061,0.0062,0,0.0061,0.0061,0.0061,0.0064,0.0064,0.0065,0.0065,0.0046,0.0045,0.0044,0,0,0,0,0,0,0,0,0,0,0,0,0,0.0106,0.0105,0.0061,0.0062,0.0062,0.0061,0.0061,0.0061,0.0064,0.0064,0.0065,0.0065,0.0046,0.0045,0.0044,0,0,0,0,0,0,0,0,0,0,0,0,0,0.0092,0.0104,0.0061,0.0065,0.0065,0.0061,0.0061,0.0061,0.0064,0.0064,0.0065,0.0065,0.0046,0.0045,0.0044,0.0029,0,0,0.004,0.004,0,0,0,0,0,0,0,0,0.0093,0.009,0.0064,0.0064,0.0065,0.0065,0.007,0.005,0.0064,0.0062,0.0065,0.0065,0.0051,0.005,0.0046,0.0028,0.0027,0.004,0.004,0.0039,0.0039,0,0,0,0,0,0,0,0.0094,0.0091,0.0059,0.0064,0.0065,0.0081,0.0078,0.0066,0.0053,0.0063,0.0063,0.0066,0.0051,0.0047,0.0046,0.0027,0.004,0.0039,0.0039,0.0038,0.0069,0.007,0,0,0,0,0,0,0.0095,0.0091,0.0059,0.006,0.0082,0.0079,0.0077,0.0063,0.0053,0.0053,0.0066,0.0066,0.0049,0.0047,0.0045,0.0089,0.0039,0.0038,0.0037,0.0067,0.0069,0.0071,0,0,0,0,0,0,0.0095,0.0091,0.0059,0.0078,0.0075,0.0078,0.0062,0.0063,0.0077,0.0056,0.0055,0.0083,0.0049,0.0047,0.0052,0.0086,0.0038,0.0037,0.0066,0.0068,0.007,0.0136,0,0,0,0,0,0,0.0096,0.0091,0.0087,0.0077,0.0074,0.0065,0.0062,0.0062,0.0078,0.0079,0.007,0.0067,0.0049,0.0054,0.0051,0.0083,0.0036,0.0064,0.0067,0.0069,0.0132,0.0141,0.0148,0,0,0,0,0,0.0098,0.0088,0.0086,0.0083,0.0066,0.0066,0.0066,0.0068,0.0079,0.0084,0.0084,0.0069,0.0071,0.0054,0.005,0.0083,0.0062,0.0066,0.0069,0.0129,0.0139,0.0148,0,0,0,0,0,0,0.0114,0.0088,0.0085,0.0071,0.0074,0.0067,0.0079,0.0081,0.0085,0.0092,0.0077,0.0074,0.0097,0.0079,0.0061,0.0102,0.0068,0.0071,0.0115,0.0125,0.0132,0.0131,0.0035,0,0,0,0,0,0.0113,0.0096,0.0085,0.0079,0.0084,0.0087,0.0091,0.0091,0.0092,0.0096,0.0094,0.0096,0.0105,0.0105,0.0104,0.0115,0.0114,0.0139,0.0146,0.0153,0.0151,0.0183,0.0194,0.0082,0.0082,0.0082,0,0,0.0121,0.0105,0.0098,0.0082,0.009,0.0084,0.0091,0.0102,0.0101,0.0092,0.0104,0.0122,0.0115,0.0136,0.0145,0.0125,0.0188,0.0157,0.0163,0.0157,0.0188,0.0199,0.0208,0.0084,0.0084,0.0083,0,0,0.013,0.0117,0.0109,0.0105,0.0109,0.0101,0.0109,0.0114,0.0125,0.0133,0.0142,0.0178,0.0174,0.0187,0.019,0.0237,0.023,0.0249,0.0282,0.0314,0.0324,0.0332,0.0357,0.0367,0.025,0.025,0.025,0,0.0156,0.0122,0.0113,0.0107,0.0103,0.011,0.0107,0.0112,0.0119,0.0145,0.0143,0.02,0.0196,0.0239,0.0261,0.0255,0.0272,0.0247,0.0325,0.0332,0.034,0.0364,0.0374,0.0254,0.0253,0.0253,0.0252,0,0.0145,0.0129,0.0133,0.0112,0.0107,0.011,0.0107,0.0125,0.0144,0.0163,0.0226,0.024,0.0281,0.0295,0.0288,0.0353,0.035,0.0334,0.03,0.0355,0.0377,0.0386,0.0259,0.0257,0.0256,0.0255,0,0,0.0192,0.0137,0.0142,0.0126,0.0109,0.0104,0.0113,0.0133,0.0167,0.0201,0.0257,0.0298,0.0347,0.0354,0.0376,0.0402,0.0473,0.0396,0.0396,0.042,0.0552,0.0474,0.0476,0.0479,0.0481,0.0483,0.0552,0,0.0202,0.0166,0.014,0.0122,0.0104,0.0108,0.0114,0.0136,0.0174,0.0231,0.0289,0.0347,0.0357,0.04,0.0435,0.0475,0.0499,0.0456,0.0496,0.0497,0.0419,0.0484,0.0488,0.0558,0.056,0.0562,0.0563,0,0.02,0.017,0.0138,0.0111,0.0113,0.0112,0.0139,0.0152,0.0229,0.0269,0.0354,0.04,0.0486,0.0465,0.0562,0.0543,0.0551,0.0562,0.0565,0.047,0.0435,0.0489,0.0579,0.0578,0.0577,0.0576,0.0575,0,0.0196,0.0176,0.0141,0.0129,0.0101,0.012,0.0135,0.0187,0.0224,0.0319,0.0369,0.0467,0.0526,0.0574,0.0614,0.0604,0.069,0.0674,0.0604,0.0598,0.0617,0.0607,0.0708,0.0708,0.0708,0.0708,0.0708,0,0.0185,0.0168,0.0149,0.0122,0.0124,0.0129,0.0174,0.0199,0.0284,0.034,0.0412,0.0464,0.0555,0.0613,0.064,0.0661,0.0718,0.062,0.0615,0.0645,0.0638,0.0624,0.0614,0.0711,0.071,0.071,0.0709,0,0.0151,0.0141,0.0098,0.009,0.0105,0.0111,0.0182,0.022,0.0304,0.0381,0.0417,0.0498,0.0573,0.0636,0.0703,0.0682,0.0709,0.0682,0.0719,0.0712,0.0592,0.0585,0.0641,0.0638,0.0637,0.0635,0.0634,0,0.012,0.0089,0.006,0.006,0.0061,0.0101,0.0128,0.0215,0.0269,0.0388,0.0418,0.0508,0.0555,0.0615,0.0656,0.0706,0.0673,0.0677,0.0629,0.0599,0.0588,0.0583,0.0578,0.0631,0.0631,0.063,0.063,0,0.005,0.0038,-0.0003,-0.0002,0.0022,0.004,0.011,0.0158,0.0266,0.0346,0.0426,0.047,0.0528,0.0581,0.0609,0.0632,0.0686,0.0658,0.0662,0.0616,0.0588,0.0578,0.0575,0.0623,0.0624,0.0625,0.0625,0,0.0007,-0.003,-0.0062,-0.0059,-0.0035,-0.0011,0.0025,0.0113,0.0186,0.0347,0.0361,0.0451,0.0525,0.0539,0.0572,0.0592,0.0577,0.0545,0.0554,0.0561,0.0497,0.0447,0.0446,0,0,0,0,0,-0.0026,-0.0067,-0.0095,-0.0094,-0.0076,-0.0053,0.0016,0.0068,0.0197,0.0243,0.0321,0.0379,0.0433,0.0463,0.047,0.0503,0.0557,0.0502,0.0518,0.0589,0.0596,0.0525,0,0,0,0,0,0,-0.004,-0.0091,-0.0118,-0.0116,-0.0104,-0.008,-0.0041,0.0026,0.0082,0.0209,0.025,0.0332,0.0396,0.044,0.046,0.047,0.0462,0.0562,0.0559,0.0585,0.0591,0.0597,0.0526,0,0,0,0,0]},{"header":{"parameterUnit":"m.s-1","parameterCategory":2,"la1":30.2991,"la2":30.254,"lo1":-89.0895,"lo2":-89.0444,"dy":0.0017,"dx":0.0017,"nx":28,"ny":28,"refTime":"2025-09-16T03:00:00:Z","depth":"4","parameterNumber":3,"parameterNumberName":"V-component_of_CURRENTS"},"data":[0,0,0,0,0,0,0,0,0,0,0,0,0,0,0,0,0,0,0,0,0,0,0,0,0,0,0,0,0,0,0,0,0,0,0,0,0,0,0,0,0,0,0,0,0,0,0,0,0,0,0,0,0,0,0,0,0,0,0.0279,0.0279,0,0.0287,0.0287,0.0287,0.0314,0.0315,0.0316,0.0316,0.0387,0.0388,0.0389,0,0,0,0,0,0,0,0,0,0,0,0,0,0.0232,0.0233,0.0279,0.028,0.028,0.0287,0.0287,0.0287,0.0314,0.0315,0.0316,0.0317,0.0386,0.0388,0.0389,0,0,0,0,0,0,0,0,0,0,0,0,0,0.0246,0.0233,0.0279,0.0295,0.0296,0.0287,0.0287,0.0287,0.0314,0.0315,0.0316,0.0317,0.0386,0.0388,0.0389,0.0379,0,0,0.0395,0.0396,0,0,0,0,0,0,0,0,0.0246,0.0248,0.0292,0.0294,0.0296,0.0302,0.0296,0.0322,0.0314,0.0306,0.0316,0.0318,0.0364,0.0368,0.0364,0.0382,0.0385,0.0395,0.0396,0.0397,0.0397,0,0,0,0,0,0,0,0.0245,0.0248,0.0281,0.0293,0.0294,0.0283,0.0286,0.0301,0.0329,0.0307,0.0309,0.0311,0.0365,0.0362,0.0366,0.0386,0.0395,0.0397,0.0398,0.0398,0.0418,0.0418,0,0,0,0,0,0,0.0248,0.0247,0.0281,0.0282,0.0274,0.0283,0.0287,0.0298,0.0328,0.0333,0.0311,0.0313,0.0359,0.0364,0.0369,0.0394,0.0397,0.0399,0.04,0.0419,0.0418,0.0418,0,0,0,0,0,0,0.0247,0.0251,0.0281,0.0265,0.0268,0.0283,0.0295,0.0297,0.0304,0.033,0.0337,0.0316,0.036,0.0367,0.0397,0.0396,0.0399,0.0401,0.042,0.0419,0.0418,0.0421,0,0,0,0,0,0,0.0246,0.0251,0.0262,0.0265,0.0269,0.0281,0.0294,0.0297,0.0304,0.0307,0.0337,0.0344,0.0361,0.0394,0.0399,0.0398,0.0402,0.042,0.0419,0.0418,0.0422,0.0421,0.042,0,0,0,0,0,0.0244,0.0251,0.0263,0.0267,0.0283,0.0281,0.0282,0.0295,0.0303,0.0304,0.0332,0.0343,0.039,0.0396,0.0401,0.0401,0.0421,0.0419,0.0418,0.0422,0.0421,0.042,0,0,0,0,0,0,0.0235,0.0255,0.0267,0.0281,0.0285,0.0286,0.0289,0.0294,0.0313,0.0321,0.0347,0.0356,0.0379,0.0385,0.039,0.04,0.0402,0.0402,0.0403,0.0402,0.0401,0.0405,0.0404,0,0,0,0,0,0.0239,0.0249,0.0263,0.0271,0.0276,0.0282,0.0284,0.0291,0.0305,0.0314,0.034,0.0359,0.0373,0.0386,0.0401,0.0412,0.0396,0.0409,0.0408,0.0407,0.0412,0.0367,0.0362,0.0414,0.0414,0.0414,0,0,0.0231,0.0247,0.0251,0.027,0.0274,0.0286,0.0286,0.0288,0.0302,0.0319,0.0353,0.0362,0.0375,0.039,0.0399,0.04,0.0386,0.0406,0.0405,0.041,0.0365,0.036,0.0356,0.0413,0.0413,0.0413,0,0,0.0222,0.0243,0.025,0.0261,0.0275,0.0282,0.0284,0.0296,0.0308,0.0333,0.0345,0.0354,0.0386,0.0389,0.0395,0.0392,0.0382,0.0392,0.0392,0.0349,0.0344,0.034,0.032,0.0314,0.039,0.039,0.039,0,0.0211,0.0241,0.0248,0.0264,0.028,0.0284,0.0298,0.0306,0.0328,0.0336,0.0348,0.0371,0.0383,0.0387,0.0389,0.0391,0.037,0.0401,0.0348,0.0343,0.0339,0.0319,0.0312,0.039,0.039,0.039,0.039,0,0.0216,0.0245,0.0248,0.0281,0.0289,0.0301,0.0318,0.0333,0.0349,0.0355,0.0368,0.0376,0.0387,0.0384,0.0393,0.0367,0.0364,0.0352,0.0353,0.0334,0.0314,0.0307,0.039,0.039,0.039,0.039,0,0,0.0186,0.0242,0.0247,0.0275,0.0306,0.0313,0.0337,0.0356,0.0366,0.038,0.0386,0.0399,0.039,0.0394,0.039,0.0356,0.0312,0.0345,0.0342,0.0328,0.0228,0.024,0.0233,0.0286,0.0284,0.0283,0.0229,0,0.0193,0.0237,0.026,0.03,0.0328,0.0349,0.0367,0.0379,0.0391,0.0396,0.0386,0.0391,0.0396,0.0395,0.0362,0.0329,0.0292,0.0329,0.0245,0.0243,0.0259,0.0225,0.0279,0.0224,0.0222,0.0221,0.022,0,0.0204,0.0237,0.0282,0.0331,0.0341,0.0362,0.0394,0.0411,0.0411,0.0414,0.0408,0.0398,0.0375,0.0365,0.0299,0.0321,0.0276,0.0242,0.0239,0.0245,0.0241,0.0244,0.0207,0.0208,0.0209,0.021,0.0211,0,0.0204,0.0256,0.0298,0.0318,0.0365,0.0386,0.0407,0.0418,0.0433,0.0424,0.0421,0.0389,0.0372,0.0315,0.0269,0.0274,0.0181,0.0175,0.0142,0.0143,0.015,0.0154,0.0103,0.0103,0.0103,0.0103,0.0103,0,0.0225,0.0258,0.0306,0.0336,0.037,0.0394,0.0428,0.0438,0.0445,0.0447,0.043,0.0412,0.0352,0.0303,0.0256,0.0189,0.017,0.0139,0.0123,0.0154,0.0159,0.0145,0.0151,0.0101,0.0102,0.0102,0.0102,0,0.0229,0.0267,0.0316,0.0366,0.0382,0.0407,0.0456,0.047,0.0475,0.0475,0.0471,0.0422,0.036,0.0308,0.0207,0.0174,0.0107,0.008,0.0133,0.0122,0.0102,0.0108,0.0038,0.0038,0.0038,0.0038,0.0037,0,0.0237,0.0267,0.0332,0.0359,0.039,0.0434,0.0458,0.0485,0.0497,0.0478,0.0466,0.041,0.0373,0.025,0.019,0.0106,0.009,0.0057,0.0067,0.01,0.0091,0.0098,0.0105,0.0037,0.0037,0.0037,0.0037,0,0.0242,0.0268,0.0305,0.0364,0.0405,0.044,0.0478,0.0485,0.0499,0.0512,0.0455,0.0397,0.032,0.0238,0.0177,0.0113,0.0083,0.0055,0.0054,0.0064,0.0098,0.0091,0.0098,0.0037,0.0037,0.0037,0.0037,0,0.0233,0.0254,0.0305,0.035,0.0405,0.0424,0.0448,0.0457,0.047,0.0459,0.0435,0.0365,0.033,0.024,0.018,0.013,0.0113,0.0089,0.0087,0.0087,0.0123,0.0176,0.0117,0,0,0,0,0,0.0225,0.0244,0.0283,0.0329,0.0384,0.041,0.0447,0.0463,0.0482,0.0445,0.0445,0.038,0.0284,0.0237,0.0186,0.0172,0.0101,0.0109,0.0072,0.0033,0.0034,0.007,0,0,0,0,0,0,0.0216,0.0255,0.027,0.0303,0.0332,0.0374,0.0397,0.0402,0.0389,0.0404,0.0355,0.0361,0.0271,0.0312,0.018,0.0166,0.0133,0.0079,0.0078,0.0033,0.0033,0.0034,0.0071,0,0,0,0,0]}]]